Погода в Константиновке

Россия / Амурская область     49°36′53″N   127°59′22″E
темп.,
°C
ветер,
м/с
пор.,
м/с
влажн.,
%
обл.,
%
осадки,
мм/ч
давл.,
гПа
погр.,
м
24 июля, сб
сб2400:00+26ююз614643 0.0 1003732
03:00+26ююз714596 0.0 1002496
06:00+25ююз7146139 0.0 1003603
09:00+29ююз810461 0.0 1003969
12:00+33юз810404 0.0 10031895
15:00+29зюз81055100 0.0 10031154
18:00+28юз81061100 0.1 1003966
21:00+24ююз3885100 0.2 1003304
25 июля, вс
вс2500:00+23ю3684100 1.1 1002161
03:00+20ю51493100 2.9 1003418
06:00+20ююз51292100 0.8 1003318
09:00+22ююз510895 1.1 1003500
12:00+30зюз684523 0.0 10021837
15:00+29юз7752100 0.0 10021563
18:00+28юз5656100 0.0 10021305
21:00+23юз3582100 0.3 1003116
26 июля, пн
пн2600:00+20ю2395100 2.8 100369
03:00+20юз3696100 5.4 1002185
06:00+20юз1297100 0.8 100351
09:00+21ссв1195100 1.1 1003124
12:00+21в1194100 0.7 1003190
15:00+21вюв1293100 2.4 1003231
18:00+22ю1191100 1.0 1003201
21:00+20юз229599 1.0 100420
27 июля, вт
вт2700:00+19юз229459 0.0 100415
03:00+18юз1193100 0.0 100411
06:00+19юз119214 0.0 100516
09:00+23ююз1180100 0.0 1005312
12:00+28всв1255100 0.0 10041177
15:00+29в3351100 0.0 10031503
18:00+28вюв3356100 0.0 10021109
21:00+24ююв2272100 0.0 100317
28 июля, ср
ср2800:00+22ююз2286100 0.2 100219
03:00+21ссз1194100 0.5 100212
06:00+20ссз1197100 0.4 100331
09:00+21в1198100 1.6 1002116
12:00+25сз128245 1.4 1001633
15:00+25зсз2284100 5.6 1000580
18:00+25сз3378100 0.5 999637
21:00+21сз2392100 0.5 99851